Location: Forli
(44.2227°N, 12.0407°E)
Time: 03:17:24
(UTC+02:00)

DX 1 - Pass Details

Date: 12 April 2026
Orbit: 593 x 604 km, 98.4° (Epoch: 19 May)

Event Time Altitude Azimuth Distance (km) Brightness Sun altitude
Rises 04:17:36 0° 13° (NNE) 2,843 ? -22.7°
Reaches altitude 10° 04:19:47 10° 13° (NNE) 1,936 ? -22.4°
Maximum altitude 04:23:59 87° 286° (WNW) 600 ? -21.8°
Enters shadow 04:24:35 65° 200° (SSW) 656 ? -21.7°
